THAICOM 8 (41552 NORAD) Tracking and Keplerian Element Data

This shows tracking and keplerian element data for the satellite.

Feedback or suggestion? Click here.




ElementValue
Catalog41552
NameTHAICOM 8
Epoch Orbit2936
Epoch Day159.90087701
Epoch Year2024
RAAN32.6917
Inclination0.0586
Eccentricity0.0002881
Argument of Perigee27.4979
Mean Anonmoly239.4709
Mean Motion1.00274321
Decay Rate-1.23E-06
L11 41552U 16031A 24159.90087701 -.00000123 00000+0 00000+0 0 9996
L22 41552 0.0586 32.6917 0002881 27.4979 239.4709 1.00274321 29367



Live tracking and technical data element details for THAICOM 8 (NORAD 41552). THAICOM 8 can be tracked NOW for your location showing map with azimuth and elevation plus other details from your city location.







IsCatalogInMostPopularTable: catalog: 41552, numindb: 706
Update: records affected: 1



GetName: 41552 THAICOM 8

Hit Count: updated at: Tue, 18 Jun 2024 00:19:01 GMT